This is the latest recevied weather packets stored in our database for station/object JS2WAD-13. If no packets are shown the sender has not sent any weather packets the latest 10 day(s).
| Time | Temp. | Humidity | Pressure | Rain* | Wind** | Luminosity | Snow |
|---|---|---|---|---|---|---|---|
| 1777912285 | 13.33° C | 65% | 906.4 hPa | 0 mm | - | 0 W/m² | - |
| 1777911985 | 13.33° C | 66% | 906.3 hPa | 0 mm | - | 0 W/m² | - |
| 1777911685 | 13.33° C | 64% | 906.3 hPa | 0 mm | - | 0 W/m² | - |
| 1777911385 | 13.33° C | 64% | 906.3 hPa | 0 mm | - | 0 W/m² | - |
| 1777911086 | 13.89° C | 67% | 906.4 hPa | 0 mm | - | 0 W/m² | - |
| 1777910786 | 13.89° C | 68% | 906.3 hPa | 0 mm | - | 0 W/m² | - |
| 1777910486 | 13.89° C | 60% | 906.2 hPa | 0 mm | - | 0 W/m² | - |
| 1777910186 | 13.89° C | 64% | 906 hPa | 0 mm | - | 0 W/m² | - |
| 1777909886 | 13.89° C | 61% | 906 hPa | 0 mm | - | 0 W/m² | - |
| 1777909586 | 13.89° C | 62% | 905.8 hPa | 0 mm | - | 0 W/m² | - |
| 1777909286 | 13.89° C | 62% | 905.8 hPa | 0 mm | - | 0 W/m² | - |
| 1777908986 | 13.89° C | 61% | 905.7 hPa | 0 mm | - | 0 W/m² | - |
| 1777908686 | 13.89° C | 66% | 905.8 hPa | 0 mm | - | 0 W/m² | - |
| 1777908386 | 13.89° C | 68% | 905.7 hPa | 0 mm | - | 0 W/m² | - |
| 1777908086 | 13.89° C | 70% | 905.8 hPa | 0 mm | - | 0 W/m² | - |
| 1777907786 | 13.89° C | 68% | 905.9 hPa | 0 mm | - | 0 W/m² | - |
| 1777907486 | 13.89° C | 65% | 905.8 hPa | 0 mm | - | 0 W/m² | - |
| 1777907186 | 13.89° C | 65% | 905.9 hPa | 0 mm | - | 0 W/m² | - |
| 1777906886 | 14.44° C | 64% | 905.9 hPa | 0 mm | - | 0 W/m² | - |
| 1777906586 | 14.44° C | 69% | 905.9 hPa | 0 mm | - | 0 W/m² | - |
| 1777906286 | 14.44° C | 65% | 905.9 hPa | 0 mm | - | 0 W/m² | - |
| 1777905986 | 14.44° C | 65% | 905.9 hPa | 0 mm | - | 0 W/m² | - |
| 1777905686 | 14.44° C | 65% | 905.7 hPa | 0 mm | - | 0 W/m² | - |
| 1777905386 | 14.44° C | 66% | 905.7 hPa | 0 mm | - | 0 W/m² | - |
| 1777905086 | 14.44° C | 65% | 905.7 hPa | 0 mm | - | 0 W/m² | - |
* Rain latest hour (hover to see other rain measurements)
** Current wind speed in m/s (hover to see current wind gust speed)